owner,sensor,date,latitude,longitude,air_temperature,qcFlag 
TABS,ioos:station:wmo:42043:1,2010-01-05T09:30:00Z,28.9818,-94.9186,3.3,11144222 
TABS,ioos:station:wmo:42043:1,2010-01-05T10:00:00Z,28.9818,-94.9186,3.3,11144222 
TABS,ioos:station:wmo:42043:1,2010-01-05T10:30:00Z,28.9818,-94.9186,3.4,11144222 
TABS,ioos:station:wmo:42043:1,2010-01-05T11:00:00Z,28.9818,-94.9186,3.0,11144222 
TABS,ioos:station:wmo:42043:1,2010-01-05T11:30:00Z,28.9818,-94.9186,3.0,11144222 
TABS,ioos:station:wmo:42043:1,2010-01-05T12:00:00Z,28.9818,-94.9186,2.7,11144222 
TABS,ioos:station:wmo:42043:1,2010-01-05T12:30:00Z,28.9818,-94.9186,2.4,11144222 
TABS,ioos:station:wmo:42043:1,2010-01-05T13:00:00Z,28.9818,-94.9186,2.6,11144222 
TABS,ioos:station:wmo:42043:1,2010-01-05T13:30:00Z,28.9818,-94.9186,2.6,11144222 
TABS,ioos:station:wmo:42043:1,2010-01-05T14:00:00Z,28.9818,-94.9186,3.1,11144222 
TABS,ioos:station:wmo:42043:1,2010-01-05T14:30:00Z,28.9818,-94.9186,3.2,11144222 
TABS,ioos:station:wmo:42043:1,2010-01-05T15:00:00Z,28.9818,-94.9186,3.3,11144222 
TABS,ioos:station:wmo:42043:1,2010-01-05T15:30:00Z,28.9818,-94.9186,3.2,11144222 
TABS,ioos:station:wmo:42043:1,2010-01-05T16:00:00Z,28.9818,-94.9186,3.0,11144222 
TABS,ioos:station:wmo:42043:1,2010-01-05T16:30:00Z,28.9818,-94.9186,3.2,11144222 
TABS,ioos:station:wmo:42043:1,2010-01-05T17:00:00Z,28.9818,-94.9186,3.2,11144222 
TABS,ioos:station:wmo:42043:1,2010-01-05T17:30:00Z,28.9818,-94.9186,3.2,11144222 
TABS,ioos:station:wmo:42043:1,2010-01-05T18:00:00Z,28.9818,-94.9186,3.5,11144222 
TABS,ioos:station:wmo:42043:1,2010-01-05T18:30:00Z,28.9818,-94.9186,3.2,11144222 
TABS,ioos:station:wmo:42043:1,2010-01-05T19:00:00Z,28.9818,-94.9186,3.4,11144222 
TABS,ioos:station:wmo:42043:1,2010-01-05T19:30:00Z,28.9818,-94.9186,3.5,11144222 
TABS,ioos:station:wmo:42043:1,2010-01-05T20:00:00Z,28.9818,-94.9186,3.9,11144222 
TABS,ioos:station:wmo:42043:1,2010-01-05T20:30:00Z,28.9818,-94.9186,3.9,11144222 
TABS,ioos:station:wmo:42043:1,2010-01-05T21:00:00Z,28.9818,-94.9186,4.1,11144222 
TABS,ioos:station:wmo:42043:1,2010-01-05T21:30:00Z,28.9818,-94.9186,4.2,11144222 
TABS,ioos:station:wmo:42043:1,2010-01-05T22:00:00Z,28.9818,-94.9186,4.6,11144222 
TABS,ioos:station:wmo:42043:1,2010-01-05T22:30:00Z,28.9818,-94.9186,4.8,11144222 
TABS,ioos:station:wmo:42043:1,2010-01-05T23:00:00Z,28.9818,-94.9186,4.8,11144222 
TABS,ioos:station:wmo:42043:1,2010-01-05T23:30:00Z,28.9818,-94.9186,4.7,11144222 
TABS,ioos:station:wmo:42043:1,2010-01-06T00:00:00Z,28.9818,-94.9186,5.0,11144222 
TABS,ioos:station:wmo:42043:1,2010-01-06T00:30:00Z,28.9818,-94.9186,5.2,11144222 
TABS,ioos:station:wmo:42043:1,2010-01-06T01:00:00Z,28.9818,-94.9186,5.4,11144222 
TABS,ioos:station:wmo:42043:1,2010-01-06T01:30:00Z,28.9818,-94.9186,5.7,11144222 
TABS,ioos:station:wmo:42043:1,2010-01-06T02:00:00Z,28.9818,-94.9186,6.0,11144222 
TABS,ioos:station:wmo:42043:1,2010-01-06T02:30:00Z,28.9818,-94.9186,6.2,11144222 
TABS,ioos:station:wmo:42043:1,2010-01-06T03:00:00Z,28.9818,-94.9186,6.4,11144222 
TABS,ioos:station:wmo:42043:1,2010-01-06T03:30:00Z,28.9818,-94.9186,6.6,11144222 
TABS,ioos:station:wmo:42043:1,2010-01-06T04:00:00Z,28.9818,-94.9186,6.8,11144222 
TABS,ioos:station:wmo:42043:1,2010-01-06T04:30:00Z,28.9818,-94.9186,6.9,11144222 
TABS,ioos:station:wmo:42043:1,2010-01-06T05:00:00Z,28.9818,-94.9186,7.0,11144222 
TABS,ioos:station:wmo:42043:1,2010-01-06T05:30:00Z,28.9818,-94.9186,7.1,11144222 
TABS,ioos:station:wmo:42043:1,2010-01-06T06:00:00Z,28.9818,-94.9186,7.2,11144222 
TABS,ioos:station:wmo:42043:1,2010-01-06T06:30:00Z,28.9818,-94.9186,7.5,11144222 
TABS,ioos:station:wmo:42043:1,2010-01-06T07:00:00Z,28.9818,-94.9186,7.7,11144222 
TABS,ioos:station:wmo:42043:1,2010-01-06T07:30:00Z,28.9818,-94.9186,7.9,11144222 
TABS,ioos:station:wmo:42043:1,2010-01-06T08:00:00Z,28.9818,-94.9186,8.1,11144222 
TABS,ioos:station:wmo:42043:1,2010-01-06T08:30:00Z,28.9818,-94.9186,8.2,11144222 
TABS,ioos:station:wmo:42043:1,2010-01-06T09:00:00Z,28.9818,-94.9186,8.6,11144222 
TABS,ioos:station:wmo:42043:1,2010-01-06T09:30:00Z,28.9818,-94.9186,8.8,11144222 
TABS,ioos:station:wmo:42043:1,2010-01-06T10:00:00Z,28.9818,-94.9186,9.0,11144222 
TABS,ioos:station:wmo:42043:1,2010-01-06T10:30:00Z,28.9818,-94.9186,9.2,11144222 
TABS,ioos:station:wmo:42043:1,2010-01-06T11:00:00Z,28.9818,-94.9186,9.6,11144222 
TABS,ioos:station:wmo:42043:1,2010-01-06T11:30:00Z,28.9818,-94.9186,9.8,11144222 
TABS,ioos:station:wmo:42043:1,2010-01-06T12:00:00Z,28.9818,-94.9186,10.1,11144222 
TABS,ioos:station:wmo:42043:1,2010-01-06T12:30:00Z,28.9818,-94.9186,10.4,11144222 
TABS,ioos:station:wmo:42043:1,2010-01-06T13:00:00Z,28.9818,-94.9186,10.5,11144222 
TABS,ioos:station:wmo:42043:1,2010-01-06T13:30:00Z,28.9818,-94.9186,10.9,11144222 
TABS,ioos:station:wmo:42043:1,2010-01-06T14:00:00Z,28.9818,-94.9186,11.1,11144222 
TABS,ioos:station:wmo:42043:1,2010-01-06T14:30:00Z,28.9818,-94.9186,11.4,11144222 
TABS,ioos:station:wmo:42043:1,2010-01-06T15:00:00Z,28.9818,-94.9186,11.8,11144222 
TABS,ioos:station:wmo:42043:1,2010-01-06T15:30:00Z,28.9818,-94.9186,12.0,11144222 
TABS,ioos:station:wmo:42043:1,2010-01-06T16:00:00Z,28.9818,-94.9186,12.2,11144222 
TABS,ioos:station:wmo:42043:1,2010-01-06T16:30:00Z,28.9818,-94.9186,12.4,11144222 
TABS,ioos:station:wmo:42043:1,2010-01-06T17:00:00Z,28.9818,-94.9186,12.6,11144222 
TABS,ioos:station:wmo:42043:1,2010-01-06T17:30:00Z,28.9818,-94.9186,12.8,11144222 
TABS,ioos:station:wmo:42043:1,2010-01-06T18:00:00Z,28.9818,-94.9186,13.0,11144222 
TABS,ioos:station:wmo:42043:1,2010-01-06T18:30:00Z,28.9818,-94.9186,13.3,11144222 
TABS,ioos:station:wmo:42043:1,2010-01-06T19:00:00Z,28.9818,-94.9186,13.4,11144222 
TABS,ioos:station:wmo:42043:1,2010-01-06T19:30:00Z,28.9818,-94.9186,13.5,11144222 
TABS,ioos:station:wmo:42043:1,2010-01-06T20:00:00Z,28.9818,-94.9186,13.5,11144222 
TABS,ioos:station:wmo:42043:1,2010-01-06T20:30:00Z,28.9818,-94.9186,13.7,11144222 
TABS,ioos:station:wmo:42043:1,2010-01-06T21:00:00Z,28.9818,-94.9186,13.7,11144222 
TABS,ioos:station:wmo:42043:1,2010-01-06T21:30:00Z,28.9818,-94.9186,13.8,11144222 
TABS,ioos:station:wmo:42043:1,2010-01-06T22:00:00Z,28.9818,-94.9186,13.9,11144222 
TABS,ioos:station:wmo:42043:1,2010-01-06T22:30:00Z,28.9818,-94.9186,14.1,11144222 
TABS,ioos:station:wmo:42043:1,2010-01-06T23:00:00Z,28.9818,-94.9186,14.2,11144222 
TABS,ioos:station:wmo:42043:1,2010-01-06T23:30:00Z,28.9818,-94.9186,14.3,11144222 
TABS,ioos:station:wmo:42043:1,2010-01-07T00:00:00Z,28.9818,-94.9186,14.4,11144222 
TABS,ioos:station:wmo:42043:1,2010-01-07T00:30:00Z,28.9818,-94.9186,14.4,11144222 
TABS,ioos:station:wmo:42043:1,2010-01-07T01:00:00Z,28.9818,-94.9186,14.6,11144222 
TABS,ioos:station:wmo:42043:1,2010-01-07T01:30:00Z,28.9818,-94.9186,14.6,11144222 
TABS,ioos:station:wmo:42043:1,2010-01-07T02:00:00Z,28.9818,-94.9186,14.7,11144222 
TABS,ioos:station:wmo:42043:1,2010-01-07T02:30:00Z,28.9818,-94.9186,14.7,11144222 
TABS,ioos:station:wmo:42043:1,2010-01-07T03:00:00Z,28.9818,-94.9186,14.7,11144222 
TABS,ioos:station:wmo:42043:1,2010-01-07T03:30:00Z,28.9818,-94.9186,14.7,11144222 
TABS,ioos:station:wmo:42043:1,2010-01-07T04:00:00Z,28.9818,-94.9186,14.8,11144222 
TABS,ioos:station:wmo:42043:1,2010-01-07T04:30:00Z,28.9818,-94.9186,14.9,11144222 
TABS,ioos:station:wmo:42043:1,2010-01-07T05:00:00Z,28.9818,-94.9186,15.0,11144222 
TABS,ioos:station:wmo:42043:1,2010-01-07T05:30:00Z,28.9818,-94.9186,15.0,11144222 
TABS,ioos:station:wmo:42043:1,2010-01-07T06:00:00Z,28.9818,-94.9186,14.9,11144222 
TABS,ioos:station:wmo:42043:1,2010-01-07T06:30:00Z,28.9818,-94.9186,15.0,11144222 
TABS,ioos:station:wmo:42043:1,2010-01-07T07:00:00Z,28.9818,-94.9186,15.0,11144222 
TABS,ioos:station:wmo:42043:1,2010-01-07T07:30:00Z,28.9818,-94.9186,15.0,11144222 
TABS,ioos:station:wmo:42043:1,2010-01-07T08:00:00Z,28.9818,-94.9186,15.2,11144222 
TABS,ioos:station:wmo:42043:1,2010-01-07T08:30:00Z,28.9818,-94.9186,14.9,11144222 
TABS,ioos:station:wmo:42043:1,2010-01-07T09:00:00Z,28.9818,-94.9186,14.6,11144222 
TABS,ioos:station:wmo:42043:1,2010-01-07T09:30:00Z,28.9818,-94.9186,14.8,11144222 
TABS,ioos:station:wmo:42043:1,2010-01-07T10:00:00Z,28.9818,-94.9186,14.6,11144222 
TABS,ioos:station:wmo:42043:1,2010-01-07T10:30:00Z,28.9818,-94.9186,14.9,11144222 
TABS,ioos:station:wmo:42043:1,2010-01-07T11:00:00Z,28.9818,-94.9186,15.6,11144222 
TABS,ioos:station:wmo:42043:1,2010-01-07T11:30:00Z,28.9818,-94.9186,15.1,11144222 
TABS,ioos:station:wmo:42043:1,2010-01-07T12:00:00Z,28.9818,-94.9186,13.5,11144222 
TABS,ioos:station:wmo:42043:1,2010-01-07T12:30:00Z,28.9818,-94.9186,13.4,11144222 
TABS,ioos:station:wmo:42043:1,2010-01-07T13:00:00Z,28.9818,-94.9186,12.8,11144222 
TABS,ioos:station:wmo:42043:1,2010-01-07T13:30:00Z,28.9818,-94.9186,13.0,11144222 
TABS,ioos:station:wmo:42043:1,2010-01-07T14:00:00Z,28.9818,-94.9186,12.3,11144222 
TABS,ioos:station:wmo:42043:1,2010-01-07T14:30:00Z,28.9818,-94.9186,11.8,11144222 
TABS,ioos:station:wmo:42043:1,2010-01-07T15:00:00Z,28.9818,-94.9186,11.6,11144222 
TABS,ioos:station:wmo:42043:1,2010-01-07T15:30:00Z,28.9818,-94.9186,11.3,11144222 
TABS,ioos:station:wmo:42043:1,2010-01-07T16:00:00Z,28.9818,-94.9186,10.8,11144222 
TABS,ioos:station:wmo:42043:1,2010-01-07T16:30:00Z,28.9818,-94.9186,9.8,11144222 
TABS,ioos:station:wmo:42043:1,2010-01-07T17:00:00Z,28.9818,-94.9186,8.9,11144222 
TABS,ioos:station:wmo:42043:1,2010-01-07T17:30:00Z,28.9818,-94.9186,8.1,11144222 
TABS,ioos:station:wmo:42043:1,2010-01-07T18:00:00Z,28.9818,-94.9186,7.2,11144222 
TABS,ioos:station:wmo:42043:1,2010-01-07T18:30:00Z,28.9818,-94.9186,6.4,11144222 
TABS,ioos:station:wmo:42043:1,2010-01-07T19:00:00Z,28.9818,-94.9186,6.4,11144222 
TABS,ioos:station:wmo:42043:1,2010-01-07T19:30:00Z,28.9818,-94.9186,5.9,11144222 
TABS,ioos:station:wmo:42043:1,2010-01-07T20:00:00Z,28.9818,-94.9186,5.8,11144222 
TABS,ioos:station:wmo:42043:1,2010-01-07T20:30:00Z,28.9818,-94.9186,5.5,11144222 
TABS,ioos:station:wmo:42043:1,2010-01-07T21:00:00Z,28.9818,-94.9186,5.8,11144222 
TABS,ioos:station:wmo:42043:1,2010-01-07T21:30:00Z,28.9818,-94.9186,5.3,11144222 
TABS,ioos:station:wmo:42043:1,2010-01-07T22:00:00Z,28.9818,-94.9186,4.7,11144222 
TABS,ioos:station:wmo:42043:1,2010-01-07T22:30:00Z,28.9818,-94.9186,4.6,11144222 
TABS,ioos:station:wmo:42043:1,2010-01-07T23:00:00Z,28.9818,-94.9186,4.5,11144222 
TABS,ioos:station:wmo:42043:1,2010-01-07T23:30:00Z,28.9818,-94.9186,4.7,11144222 
TABS,ioos:station:wmo:42043:1,2010-01-08T00:00:00Z,28.9818,-94.9186,4.8,11144222 
TABS,ioos:station:wmo:42043:1,2010-01-08T00:30:00Z,28.9818,-94.9186,4.9,11144222 
TABS,ioos:station:wmo:42043:1,2010-01-08T01:00:00Z,28.9818,-94.9186,4.6,11144222 
TABS,ioos:station:wmo:42043:1,2010-01-08T01:30:00Z,28.9818,-94.9186,4.0,11144222 
TABS,ioos:station:wmo:42043:1,2010-01-08T02:00:00Z,28.9818,-94.9186,3.6,11144222 
TABS,ioos:station:wmo:42043:1,2010-01-08T02:30:00Z,28.9818,-94.9186,3.6,11144222 
TABS,ioos:station:wmo:42043:1,2010-01-08T03:00:00Z,28.9818,-94.9186,3.2,11144222 
TABS,ioos:station:wmo:42043:1,2010-01-08T03:30:00Z,28.9818,-94.9186,2.8,11144222 
TABS,ioos:station:wmo:42043:1,2010-01-08T04:00:00Z,28.9818,-94.9186,2.4,11144222 
TABS,ioos:station:wmo:42043:1,2010-01-08T04:30:00Z,28.9818,-94.9186,2.3,11144222 
TABS,ioos:station:wmo:42043:1,2010-01-08T05:00:00Z,28.9818,-94.9186,1.9,11144222 
TABS,ioos:station:wmo:42043:1,2010-01-08T05:30:00Z,28.9818,-94.9186,1.9,11144222 
TABS,ioos:station:wmo:42043:1,2010-01-08T06:00:00Z,28.9818,-94.9186,1.7,11144222 
TABS,ioos:station:wmo:42043:1,2010-01-08T06:30:00Z,28.9818,-94.9186,1.2,11144222 
TABS,ioos:station:wmo:42043:1,2010-01-08T07:00:00Z,28.9818,-94.9186,1.0,11144222 
TABS,ioos:station:wmo:42043:1,2010-01-08T07:30:00Z,28.9818,-94.9186,0.9,11144222 
TABS,ioos:station:wmo:42043:1,2010-01-08T08:00:00Z,28.9818,-94.9186,0.7,11144222 
TABS,ioos:station:wmo:42043:1,2010-01-08T08:30:00Z,28.9818,-94.9186,0.7,11144222 
TABS,ioos:station:wmo:42043:1,2010-01-08T09:00:00Z,28.9818,-94.9186,0.4,11144222 
TABS,ioos:station:wmo:42043:1,2010-01-08T09:30:00Z,28.9818,-94.9186,0.0,11144222 
TABS,ioos:station:wmo:42043:1,2010-01-08T10:00:00Z,28.9818,-94.9186,0.1,11144222 
TABS,ioos:station:wmo:42043:1,2010-01-08T10:30:00Z,28.9818,-94.9186,0.1,11144222 
TABS,ioos:station:wmo:42043:1,2010-01-08T11:00:00Z,28.9818,-94.9186,-0.4,11144222 
TABS,ioos:station:wmo:42043:1,2010-01-08T11:30:00Z,28.9818,-94.9186,-0.6,11144222 
TABS,ioos:station:wmo:42043:1,2010-01-08T12:00:00Z,28.9818,-94.9186,-0.5,11144222 
TABS,ioos:station:wmo:42043:1,2010-01-08T12:30:00Z,28.9818,-94.9186,-0.8,11144222 
TABS,ioos:station:wmo:42043:1,2010-01-08T13:00:00Z,28.9818,-94.9186,-0.6,11144222 
TABS,ioos:station:wmo:42043:1,2010-01-08T13:30:00Z,28.9818,-94.9186,-0.8,11144222 
TABS,ioos:station:wmo:42043:1,2010-01-08T14:00:00Z,28.9818,-94.9186,-0.9,11144222 
TABS,ioos:station:wmo:42043:1,2010-01-08T14:30:00Z,28.9818,-94.9186,-1.1,11144222 
TABS,ioos:station:wmo:42043:1,2010-01-08T15:00:00Z,28.9818,-94.9186,-1.3,11144222 
TABS,ioos:station:wmo:42043:1,2010-01-08T15:30:00Z,28.9818,-94.9186,-1.1,11144222 
TABS,ioos:station:wmo:42043:1,2010-01-08T16:00:00Z,28.9818,-94.9186,-1.0,11144222 
TABS,ioos:station:wmo:42043:1,2010-01-08T16:30:00Z,28.9818,-94.9186,-1.0,11144222 
TABS,ioos:station:wmo:42043:1,2010-01-08T17:00:00Z,28.9818,-94.9186,-0.5,11144222 
TABS,ioos:station:wmo:42043:1,2010-01-08T17:30:00Z,28.9818,-94.9186,-0.7,11144222 
TABS,ioos:station:wmo:42043:1,2010-01-08T18:00:00Z,28.9818,-94.9186,-0.5,11144222 
TABS,ioos:station:wmo:42043:1,2010-01-08T18:30:00Z,28.9818,-94.9186,-0.2,11144222 
TABS,ioos:station:wmo:42043:1,2010-01-08T19:00:00Z,28.9818,-94.9186,-0.3,11144222 
TABS,ioos:station:wmo:42043:1,2010-01-08T19:30:00Z,28.9818,-94.9186,0.3,11144222 
TABS,ioos:station:wmo:42043:1,2010-01-08T20:00:00Z,28.9818,-94.9186,0.2,11144222 
TABS,ioos:station:wmo:42043:1,2010-01-08T20:30:00Z,28.9818,-94.9186,0.4,11144222 
TABS,ioos:station:wmo:42043:1,2010-01-08T21:00:00Z,28.9818,-94.9186,0.8,11144222 
TABS,ioos:station:wmo:42043:1,2010-01-08T21:30:00Z,28.9818,-94.9186,0.9,11144222 
TABS,ioos:station:wmo:42043:1,2010-01-08T22:00:00Z,28.9818,-94.9186,0.9,11144222 
TABS,ioos:station:wmo:42043:1,2010-01-08T22:30:00Z,28.9818,-94.9186,0.7,11144222 
TABS,ioos:station:wmo:42043:1,2010-01-08T23:00:00Z,28.9818,-94.9186,0.6,11144222 
TABS,ioos:station:wmo:42043:1,2010-01-08T23:30:00Z,28.9818,-94.9186,0.5,11144222 
TABS,ioos:station:wmo:42043:1,2010-01-09T00:00:00Z,28.9818,-94.9186,0.4,11144222 
TABS,ioos:station:wmo:42043:1,2010-01-09T00:30:00Z,28.9818,-94.9186,0.2,11144222 
TABS,ioos:station:wmo:42043:1,2010-01-09T01:00:00Z,28.9818,-94.9186,-0.3,11144222 
TABS,ioos:station:wmo:42043:1,2010-01-09T01:30:00Z,28.9818,-94.9186,-0.1,11144222 
TABS,ioos:station:wmo:42043:1,2010-01-09T02:00:00Z,28.9818,-94.9186,-0.5,11144222 
TABS,ioos:station:wmo:42043:1,2010-01-09T02:30:00Z,28.9818,-94.9186,-0.3,11144222 
TABS,ioos:station:wmo:42043:1,2010-01-09T03:00:00Z,28.9818,-94.9186,-0.5,11144222 
TABS,ioos:station:wmo:42043:1,2010-01-09T03:30:00Z,28.9818,-94.9186,-0.3,11144222 
TABS,ioos:station:wmo:42043:1,2010-01-09T04:00:00Z,28.9818,-94.9186,-0.5,11144222 
TABS,ioos:station:wmo:42043:1,2010-01-09T04:30:00Z,28.9818,-94.9186,-0.7,11144222 
TABS,ioos:station:wmo:42043:1,2010-01-09T05:00:00Z,28.9818,-94.9186,-0.6,11144222 
TABS,ioos:station:wmo:42043:1,2010-01-09T05:30:00Z,28.9818,-94.9186,-0.5,11144222 
TABS,ioos:station:wmo:42043:1,2010-01-09T06:00:00Z,28.9818,-94.9186,-0.9,11144222 
TABS,ioos:station:wmo:42043:1,2010-01-09T06:30:00Z,28.9818,-94.9186,-0.6,11144222 
TABS,ioos:station:wmo:42043:1,2010-01-09T07:00:00Z,28.9818,-94.9186,-0.7,11144222 
TABS,ioos:station:wmo:42043:1,2010-01-09T07:30:00Z,28.9818,-94.9186,-1.1,11144222 
TABS,ioos:station:wmo:42043:1,2010-01-09T08:00:00Z,28.9818,-94.9186,-1.1,11144222 
TABS,ioos:station:wmo:42043:1,2010-01-09T08:30:00Z,28.9818,-94.9186,-1.1,11144222 
TABS,ioos:station:wmo:42043:1,2010-01-09T09:00:00Z,28.9818,-94.9186,-1.0,11144222 
TABS,ioos:station:wmo:42043:1,2010-01-09T09:30:00Z,28.9818,-94.9186,-1.1,11144222 
TABS,ioos:station:wmo:42043:1,2010-01-09T10:00:00Z,28.9818,-94.9186,-1.3,11144222 
TABS,ioos:station:wmo:42043:1,2010-01-09T10:30:00Z,28.9818,-94.9186,-1.4,11144222 
TABS,ioos:station:wmo:42043:1,2010-01-09T11:00:00Z,28.9818,-94.9186,-1.3,11144222 
TABS,ioos:station:wmo:42043:1,2010-01-09T11:30:00Z,28.9818,-94.9186,-1.5,11144222 
TABS,ioos:station:wmo:42043:1,2010-01-09T12:00:00Z,28.9818,-94.9186,-1.6,11144222 
TABS,ioos:station:wmo:42043:1,2010-01-09T12:30:00Z,28.9818,-94.9186,-1.4,11144222 
TABS,ioos:station:wmo:42043:1,2010-01-09T13:00:00Z,28.9818,-94.9186,-1.9,11144222 
TABS,ioos:station:wmo:42043:1,2010-01-09T13:30:00Z,28.9818,-94.9186,-1.5,11144222 
TABS,ioos:station:wmo:42043:1,2010-01-09T14:00:00Z,28.9818,-94.9186,-1.1,11144222 
TABS,ioos:station:wmo:42043:1,2010-01-09T14:30:00Z,28.9818,-94.9186,-1.1,11144222 
TABS,ioos:station:wmo:42043:1,2010-01-09T15:00:00Z,28.9818,-94.9186,-1.0,11144222 
TABS,ioos:station:wmo:42043:1,2010-01-09T15:30:00Z,28.9818,-94.9186,-0.9,11144222 
TABS,ioos:station:wmo:42043:1,2010-01-09T16:00:00Z,28.9818,-94.9186,-0.9,11144222 
TABS,ioos:station:wmo:42043:1,2010-01-09T16:30:00Z,28.9818,-94.9186,-0.7,11144222 
TABS,ioos:station:wmo:42043:1,2010-01-09T17:00:00Z,28.9818,-94.9186,-0.7,11144222 
TABS,ioos:station:wmo:42043:1,2010-01-09T17:30:00Z,28.9818,-94.9186,-0.5,11144222 
TABS,ioos:station:wmo:42043:1,2010-01-09T18:00:00Z,28.9818,-94.9186,-0.3,11144222 
TABS,ioos:station:wmo:42043:1,2010-01-09T18:30:00Z,28.9818,-94.9186,-0.1,11144222 
TABS,ioos:station:wmo:42043:1,2010-01-09T19:00:00Z,28.9818,-94.9186,0.2,11144222 
TABS,ioos:station:wmo:42043:1,2010-01-09T19:30:00Z,28.9818,-94.9186,0.5,11144222 
TABS,ioos:station:wmo:42043:1,2010-01-09T20:00:00Z,28.9818,-94.9186,0.7,11144222 
TABS,ioos:station:wmo:42043:1,2010-01-09T20:30:00Z,28.9818,-94.9186,0.8,11144222 
TABS,ioos:station:wmo:42043:1,2010-01-09T21:00:00Z,28.9818,-94.9186,1.4,11144222 
TABS,ioos:station:wmo:42043:1,2010-01-09T21:30:00Z,28.9818,-94.9186,1.7,11144222 
TABS,ioos:station:wmo:42043:1,2010-01-09T22:00:00Z,28.9818,-94.9186,2.2,11144222 
TABS,ioos:station:wmo:42043:1,2010-01-09T22:30:00Z,28.9818,-94.9186,3.0,11144222 
TABS,ioos:station:wmo:42043:1,2010-01-09T23:00:00Z,28.9818,-94.9186,3.4,11144222 
TABS,ioos:station:wmo:42043:1,2010-01-09T23:30:00Z,28.9818,-94.9186,3.3,11144222 
TABS,ioos:station:wmo:42043:1,2010-01-10T00:00:00Z,28.9818,-94.9186,3.2,11144222 
TABS,ioos:station:wmo:42043:1,2010-01-10T00:30:00Z,28.9818,-94.9186,3.5,11144222 
TABS,ioos:station:wmo:42043:1,2010-01-10T01:00:00Z,28.9818,-94.9186,3.7,11144222 
TABS,ioos:station:wmo:42043:1,2010-01-10T01:30:00Z,28.9818,-94.9186,3.8,11144222 
TABS,ioos:station:wmo:42043:1,2010-01-10T02:00:00Z,28.9818,-94.9186,3.9,11144222 
TABS,ioos:station:wmo:42043:1,2010-01-10T02:30:00Z,28.9818,-94.9186,3.9,11144222 
TABS,ioos:station:wmo:42043:1,2010-01-10T03:00:00Z,28.9818,-94.9186,3.9,11144222 
TABS,ioos:station:wmo:42043:1,2010-01-10T03:30:00Z,28.9818,-94.9186,4.1,11144222 
TABS,ioos:station:wmo:42043:1,2010-01-10T04:00:00Z,28.9818,-94.9186,4.0,11144222 
TABS,ioos:station:wmo:42043:1,2010-01-10T04:30:00Z,28.9818,-94.9186,3.9,11144222 
TABS,ioos:station:wmo:42043:1,2010-01-10T05:00:00Z,28.9818,-94.9186,3.7,11144222 
TABS,ioos:station:wmo:42043:1,2010-01-10T05:30:00Z,28.9818,-94.9186,3.5,11144222 
TABS,ioos:station:wmo:42043:1,2010-01-10T06:00:00Z,28.9818,-94.9186,3.6,11144222 
TABS,ioos:station:wmo:42043:1,2010-01-10T06:30:00Z,28.9818,-94.9186,3.5,11144222 
TABS,ioos:station:wmo:42043:1,2010-01-10T07:00:00Z,28.9818,-94.9186,3.4,11144222 
TABS,ioos:station:wmo:42043:1,2010-01-10T07:30:00Z,28.9818,-94.9186,3.4,11144222 
TABS,ioos:station:wmo:42043:1,2010-01-10T08:00:00Z,28.9818,-94.9186,3.4,11144222 
TABS,ioos:station:wmo:42043:1,2010-01-10T08:30:00Z,28.9818,-94.9186,3.3,11144222 
TABS,ioos:station:wmo:42043:1,2010-01-10T09:00:00Z,28.9818,-94.9186,3.2,11144222 
TABS,ioos:station:wmo:42043:1,2010-01-10T09:30:00Z,28.9818,-94.9186,3.3,11144222 
TABS,ioos:station:wmo:42043:1,2010-01-10T10:00:00Z,28.9818,-94.9186,3.2,11144222 
TABS,ioos:station:wmo:42043:1,2010-01-10T10:30:00Z,28.9818,-94.9186,3.1,11144222 
TABS,ioos:station:wmo:42043:1,2010-01-10T11:00:00Z,28.9818,-94.9186,3.0,11144222 
TABS,ioos:station:wmo:42043:1,2010-01-10T11:30:00Z,28.9818,-94.9186,3.1,11144222 
TABS,ioos:station:wmo:42043:1,2010-01-10T12:00:00Z,28.9818,-94.9186,3.0,11144222 
TABS,ioos:station:wmo:42043:1,2010-01-10T12:30:00Z,28.9818,-94.9186,2.7,11144222 
TABS,ioos:station:wmo:42043:1,2010-01-10T13:00:00Z,28.9818,-94.9186,2.7,11144222 
TABS,ioos:station:wmo:42043:1,2010-01-10T13:30:00Z,28.9818,-94.9186,2.7,11144222 
TABS,ioos:station:wmo:42043:1,2010-01-10T14:00:00Z,28.9818,-94.9186,3.2,11144222 
TABS,ioos:station:wmo:42043:1,2010-01-10T14:30:00Z,28.9818,-94.9186,3.3,11144222 
TABS,ioos:station:wmo:42043:1,2010-01-10T15:00:00Z,28.9818,-94.9186,3.4,11144222 
TABS,ioos:station:wmo:42043:1,2010-01-10T15:30:00Z,28.9818,-94.9186,3.4,11144222 
TABS,ioos:station:wmo:42043:1,2010-01-10T16:00:00Z,28.9818,-94.9186,3.4,11144222 
TABS,ioos:station:wmo:42043:1,2010-01-10T16:30:00Z,28.9818,-94.9186,3.1,11144222 
TABS,ioos:station:wmo:42043:1,2010-01-10T17:00:00Z,28.9818,-94.9186,3.3,11144222 
TABS,ioos:station:wmo:42043:1,2010-01-10T17:30:00Z,28.9818,-94.9186,3.3,11144222 
TABS,ioos:station:wmo:42043:1,2010-01-10T18:00:00Z,28.9818,-94.9186,3.1,11144222 
TABS,ioos:station:wmo:42043:1,2010-01-10T18:30:00Z,28.9818,-94.9186,3.3,11144222 
TABS,ioos:station:wmo:42043:1,2010-01-10T19:00:00Z,28.9818,-94.9186,3.2,11144222 
TABS,ioos:station:wmo:42043:1,2010-01-10T19:30:00Z,28.9818,-94.9186,3.4,11144222 
TABS,ioos:station:wmo:42043:1,2010-01-10T20:00:00Z,28.9818,-94.9186,3.3,11144222 
TABS,ioos:station:wmo:42043:1,2010-01-10T20:30:00Z,28.9818,-94.9186,3.5,11144222 
TABS,ioos:station:wmo:42043:1,2010-01-10T21:00:00Z,28.9818,-94.9186,3.7,11144222 
TABS,ioos:station:wmo:42043:1,2010-01-10T21:30:00Z,28.9818,-94.9186,3.7,11144222 
TABS,ioos:station:wmo:42043:1,2010-01-10T22:00:00Z,28.9818,-94.9186,3.8,11144222 
TABS,ioos:station:wmo:42043:1,2010-01-10T22:30:00Z,28.9818,-94.9186,4.0,11144222 
TABS,ioos:station:wmo:42043:1,2010-01-10T23:00:00Z,28.9818,-94.9186,3.8,11144222 
TABS,ioos:station:wmo:42043:1,2010-01-10T23:30:00Z,28.9818,-94.9186,3.4,11144222 
TABS,ioos:station:wmo:42043:1,2010-01-11T00:00:00Z,28.9818,-94.9186,3.3,11144222 
TABS,ioos:station:wmo:42043:1,2010-01-11T00:30:00Z,28.9818,-94.9186,3.4,11144222 
TABS,ioos:station:wmo:42043:1,2010-01-11T01:00:00Z,28.9818,-94.9186,3.5,11144222 
TABS,ioos:station:wmo:42043:1,2010-01-11T01:30:00Z,28.9818,-94.9186,3.5,11144222 
TABS,ioos:station:wmo:42043:1,2010-01-11T02:00:00Z,28.9818,-94.9186,3.8,11144222 
TABS,ioos:station:wmo:42043:1,2010-01-11T02:30:00Z,28.9818,-94.9186,3.8,11144222 
TABS,ioos:station:wmo:42043:1,2010-01-11T03:00:00Z,28.9818,-94.9186,4.0,11144222 
TABS,ioos:station:wmo:42043:1,2010-01-11T03:30:00Z,28.9818,-94.9186,4.0,11144222 
TABS,ioos:station:wmo:42043:1,2010-01-11T04:00:00Z,28.9818,-94.9186,4.3,11144222 
TABS,ioos:station:wmo:42043:1,2010-01-11T04:30:00Z,28.9818,-94.9186,4.6,11144222 
TABS,ioos:station:wmo:42043:1,2010-01-11T05:00:00Z,28.9818,-94.9186,4.7,11144222 
TABS,ioos:station:wmo:42043:1,2010-01-11T05:30:00Z,28.9818,-94.9186,4.9,11144222 
TABS,ioos:station:wmo:42043:1,2010-01-11T06:00:00Z,28.9818,-94.9186,5.1,11144222 
TABS,ioos:station:wmo:42043:1,2010-01-11T06:30:00Z,28.9818,-94.9186,5.4,11144222 
TABS,ioos:station:wmo:42043:1,2010-01-11T07:00:00Z,28.9818,-94.9186,5.6,11144222 
TABS,ioos:station:wmo:42043:1,2010-01-11T07:30:00Z,28.9818,-94.9186,5.8,11144222 
TABS,ioos:station:wmo:42043:1,2010-01-11T08:00:00Z,28.9818,-94.9186,5.9,11144222 
TABS,ioos:station:wmo:42043:1,2010-01-11T08:30:00Z,28.9818,-94.9186,6.0,11144222 
TABS,ioos:station:wmo:42043:1,2010-01-11T09:00:00Z,28.9818,-94.9186,6.2,11144222 
TABS,ioos:station:wmo:42043:1,2010-01-11T09:30:00Z,28.9818,-94.9186,6.4,11144222 
TABS,ioos:station:wmo:42043:1,2010-01-11T10:00:00Z,28.9818,-94.9186,6.7,11144222 